Terug naar catalogus

COSMOS 2129

ActiefNavigatieLEO
NORAD 21104·PAYLOAD·🇷🇺 Russia

Gelanceerd Feb 12, 1991 vanaf Plesetsk Cosmodrome

Loading…

Volgende Passages (komende 24 uur)

TLE

VersSource: Space-Track

Epoch: Sep 14, 2026, 00:48 UTC

1 21104U 91009E   26257.03351705 -.00000020  00000-0 -26130-4 0  9993
2 21104  74.0270  80.4279 0025283 236.3237 288.6021 12.53745287628654

Volg COSMOS 2129 in realtime met AllMySat

Download on the App Store